Location: Little Suamico
(44.7175°N, 88.0093°W)
Time: 08:13:59
(UTC+00:00)

X-37B - Pass Details

Date: 24 April 2021
Orbit: 386 x 389 km, 45.0° (Epoch: 08 May)

Event Time Altitude Azimuth Distance (km) Brightness Sun altitude
Exits shadow 09:59:18 - 278° (W) 1,476 3.0 -9.4°
Reaches altitude 10° 09:59:27 10° 278° (W) 1,416 2.9 -9.4°
Maximum altitude 10:02:36 63° 197° (SSW) 436 0.6 -8.9°
Drops below altitude 10° 10:05:45 10° 115° (ESE) 1,410 4.0 -8.4°
Sets 10:07:49 0° 112° (ESE) 2,262 5.1 -8.1°
